Home   Weather   Nannestad   Past weeks

Flag for Norway Past Weather in Nannestad, Norway — Yesterday and Last 2 Weeks

Now
34 °F

Passing clouds.


Feels Like: 28 °F
Forecast: 23 / 43 °F
Wind: 7 mph from Northwest

Location: Oslo Gardermoen Airport

Current Time: Apr 26, 2017 at 2:29:27 am

Latest Report: Apr 26, 2017 at 1:50 am


Visibility: N/A

Pressure: 29.62 "Hg

Humidity: 51%

Dew Point: 18 °F

Location of NannestadLocation

Past Weather in Nannestad — Graph

°F

Nannestad Temperature Yesterday

Maximum temperature yesterday: 41 °F (at 6:20 pm)
Minimum temperature yesterday: 30 °F (at 3:50 am)
Average temperature yesterday: 35 °F

High & Low Weather Summary for the Past Weeks

 TemperatureHumidityPressure
High52 °F (Apr 20, 6:20 pm)100% (Apr 12, 7:20 am)30.51 "Hg (Apr 12, 7:20 am)
Low21 °F (Apr 15, 4:50 am)18% (Apr 22, 3:20 pm)29.24 "Hg (Apr 24, 4:50 pm)
Average36 °F62%29.81 "Hg
* Reported Apr 11 1:20 am — Apr 26 1:20 am, Nannestad, Weather by CustomWeather, © 2017

Note: Actual official high and low records may vary slightly from our data, if they occured in-between our weather recording intervals... More about our weather records

Advertising

Nannestad Weather History for the Previous 24 Hours

Scroll right to see more
 ConditionsComfort  
Time TempWeatherWind HumidityBarometerVisibility
1:20 am
Wed, Apr 26
34 °FClear.10 mph56%29.62 "Hg10 mi
12:50 am34 °FClear.7 mph56%29.62 "Hg10 mi
12:20 am34 °FClear.9 mph56%29.62 "Hg10 mi
11:50 pm
Tue, Apr 25
36 °FClear.9 mph52%29.59 "Hg10 mi
11:20 pm36 °FClear.8 mph56%29.59 "Hg10 mi
10:50 pm36 °FClear.10 mph56%29.59 "Hg10 mi
10:20 pm36 °FClear.12 mph56%29.59 "Hg10 mi
9:50 pm37 °FClear.12 mph52%29.59 "Hg10 mi
9:20 pm37 °FClear.9 mph56%29.56 "Hg10 mi
8:50 pm37 °FSunny.9 mph56%29.56 "Hg10 mi
8:20 pm39 °FSunny.12 mph48%29.56 "Hg10 mi
7:50 pm39 °FSunny.13 mph52%29.53 "Hg10 mi
7:20 pm39 °FPassing clouds.13 mph52%29.53 "HgN/A
6:50 pm41 °FSunny.12 mph49%29.53 "Hg10 mi
6:20 pm41 °FPassing clouds.12 mph49%29.53 "HgN/A
5:50 pm39 °FPassing clouds.12 mph56%29.53 "HgN/A
5:20 pm39 °FScattered showers. Clear.13 mph56%29.50 "HgN/A
4:50 pm37 °FSprinkles. Broken clouds.15 mph65%29.50 "HgN/A
4:20 pm39 °FScattered showers. Clear.16 mph56%29.50 "HgN/A
3:50 pm39 °FScattered showers. Clear.17 mph61%29.50 "HgN/A
3:20 pm37 °FSprinkles. Partly sunny.15 mph65%29.50 "HgN/A
2:50 pm37 °FSprinkles. Partly sunny.15 mph70%29.47 "HgN/A
2:20 pm37 °FSprinkles. Partly sunny.17 mph70%29.47 "HgN/A
1:50 pm37 °FScattered showers. More clouds than sun.20 mph65%29.47 "HgN/A
1:20 pm37 °FScattered showers. Broken clouds.21 mph60%29.45 "HgN/A
12:50 pm37 °FScattered clouds.18 mph60%29.45 "HgN/A
12:20 pm37 °FCloudy.17 mph56%29.45 "HgN/A
11:50 am36 °FBroken clouds.20 mph65%29.45 "HgN/A
11:20 am36 °FCloudy.20 mph65%29.45 "HgN/A
10:50 am36 °FPartly sunny.20 mph65%29.42 "HgN/A
10:20 am36 °FPartly sunny.20 mph65%29.42 "HgN/A
9:50 am34 °FBroken clouds.17 mph70%29.42 "HgN/A
9:20 am32 °FScattered showers. More clouds than sun.17 mph80%29.42 "HgN/A
8:50 am32 °FMostly cloudy.16 mph80%29.39 "HgN/A
8:20 am32 °FCloudy.16 mph80%29.39 "HgN/A
7:50 am30 °FLight mixture of precip. Broken clouds.17 mph86%29.39 "HgN/A
7:20 am30 °FLight snow. Cloudy.16 mph86%29.36 "Hg2 mi
6:50 am30 °FLight snow. More clouds than sun.16 mph86%29.36 "HgN/A
6:20 am30 °FLight snow. More clouds than sun.16 mph86%29.36 "Hg4 mi
5:50 am30 °FLight snow. Partly sunny.15 mph86%29.33 "HgN/A
5:20 am30 °FLight snow. Mostly cloudy.16 mph93%29.33 "Hg4 mi
4:50 am30 °FLight snow. Mostly cloudy.18 mph93%29.33 "Hg4 mi
4:20 am30 °FLight snow. Mostly cloudy.17 mph93%29.33 "Hg4 mi
3:50 am30 °FLight snow. Mostly cloudy.16 mph93%29.33 "Hg2 mi
3:20 am32 °FLight snow. Mostly cloudy.16 mph87%29.30 "Hg4 mi
2:50 am32 °FSleet. Mostly cloudy.15 mph87%29.30 "HgN/A
2:20 am32 °FLight snow. Mostly cloudy.15 mph87%29.30 "Hg6 mi
Weather by CustomWeather, © 2017

See weather overviewHow to use our weather pages